SL-12 R/B(2), 32278

Orbit data source: Space-Track

SL-12 R/B(2), 32278 is space debris in MEO originally from a launch on Fri, 26 Oct 2007 UTC launched from the Tyuratam Missile And Space Complex (TTMTR). Debris objects in space refer to the collection of defunct objects orbiting the Earth. Examples of debris include non-operational satellites, rocket bodies, and fragments generated from explosions, collisions, or faulty payload assembly.

Loading next visibility...
Identifier
32278, 2007-052D
Orbit
MEO
Country
Flag of CISCIS
Related business
Manufacturer
RKKE
Mission
Spacecraft
Bus & Motor
BLOK DM2, 11D58M
Mass
2,440 kg wet, 2,440 kg dry
Launch date (UTC)
2007-10-26 (18 years ago)
Launch vehicle
Unknown
Launch site
Tyuratam Missile And Space Complex (TTMTR)
Object type
Payload
Rocket body
Debris
Shape & HBR
Cyl, 3.5 m
Radar Cross Section
26.008 m², Large (>1 m²)

Expand to show TLE details & history
Last TLE update: 2 days ago

TLE from 2 days ago
0 SL-12 R/B(2)
1 32278U 07052D   25257.12470196 -.00000059  00000-0  00000-0 0  9992
2 32278  65.7204 324.6056 0018694 198.5187 215.1043  2.13393821139259
Epoch: 2025-09-14T02:59Z
TLE epoch observation values (Epoch: 2025-09-14T02:59:34.249Z)
Latitude
47.12873°
Longitude
-44.61814°
Altitude
19,151.821 km
Speed
3.95 km/s
True Right ascension
23h 34m 29s
True Declination
47° 04' 51"
Sunlit
Object was in daylight at epoch
Visualization orbit readout
Latitude
Unknown
Longitude
Unknown
Altitude
Unknown
Speed
Unknown
Apparent Right ascension
Unknown
Apparent Declination
Unknown
Sunlit
N/A
Visualization observer readout
Local Sidereal Time
17:56:59
Azimuth
Unknown
Elevation
Unknown
Doppler factor
Unknown
Orbital elements
Apogee altitude
19,153.857 km
Perigee altitude
19,058.576 km
Semi-major axis
25,484.354 km
Eccentricity
0.00187
Inclination
65.7204°
RAAN
324.6056°
Arg. of periapsis
198.5187°
True anomaly
214.98135°
Mean anomaly
215.1043°
Eccentric anomaly
215.0428°
Mean motion
0.5335 °/min
Orbital period
674.79 mins
BSTAR
0
Loading maneuver chart data...
Computing Atmospheric mass density...
Loading historical data...
Loading historical data...
Loading historical data...
Loading historical data...
Loading historical data...
Loading historical data...
Loading historical data...

Documentation

Showing up to 5 results
|